Starlink 32756

operational
NORAD ID: 62752 Int'l Des: 2025-014 Owner: SPXS Country: US Constellation: starlink
LEOCIRCULAR

关于 Starlink 32756

正在加载描述...

实时位置

正在加载3D地球...

即将过境

高度历史

Altitude vs Time

uPlot chart will show altitude changes over time

两行轨道根数

1 62752U 25014T 25304.62272025 .00031592 00000-0 11518-2 0 9992
2 62752 42.9991 163.6831 0001314 271.6768 88.3933 15.27604257 43518
Epoch: Oct 31, 2025 • Age: 13 hours

当前状态

高度 482.3 km
速度 7.63 km/s
星下点 16.11°N, 83.91°E
发射日期 Jan 21, 2025
运行时间 0.7 years
类型 internet

技术详情

分类 Payload
质量 730.00 kg
干质量 700.00 kg
总质量 730.00 kg
长度 0.30 m
直径 4.10 m
跨度 29.00 m
形状 Box + pan
制造商 SPXS
平台类型 Starlink V2M
阶段状态 In Orbit
所有者/国家 SPXS/US

大型星座

Loading constellations...